Caldwell, NJ

5:10 PM EST on December 05, 2019 (GMT -0500)
Essex County

Weather History for KCDW - June, 2019

Change the Weather History Date:

Monday, June 3, 2019

  Actual Average Record
Temperature  
Mean Temperature 63 °F -  
Max Temperature 72 °F 76 °F 88 °F (2014)
Min Temperature 55 °F 52 °F 40 °F (1964)
Degree Days  
Heating Degree Days 2    
Growing Degree Days 13 (Base 50)    
Moisture  
Dew Point 41 °F    
Average Humidity 47    
Maximum Humidity 78    
Minimum Humidity 20    
Precipitation  
Precipitation 0.00 in - - ()
Sea Level Pressure  
Sea Level Pressure 29.93 in    
Wind  
Wind Speed 6 mph (NW)    
Max Wind Speed 16 mph    
Max Gust Speed 25 mph    
Visibility 10 miles    
Events      
Averages and records for this station are not official NWS values.
T = Trace of Precipitation, MM = Missing Value Source: NWS Daily Summary

Daily Weather History Graph

Daily Weather History Graph

Search for Another Location

Airport or City:

Astronomy

Jun. 03, 2019 Rise Set
Actual Time 5:26 AM EDT 8:23 PM EDT
Civil Twilight 4:54 AM EDT 8:56 PM EDT
Nautical Twilight 4:12 AM EDT 9:38 PM EDT
Astronomical Twilight 3:24 AM EDT 10:27 PM EDT
Moon 5:46 AM EDT (6/3) 8:45 PM EDT (6/3)
Length of Visible Light 16h 02m
Length of Day
14h 57m
New Moon, 0% of the Moon is Illuminated
Jun 3
New Moon
Jun 10
First Quarter
Jun 17
Full
Jun 25
Last Quarter
Jul 2
New

Hourly Weather History & Observations

Time (EDT) Temp. Dew Point Humidity Pressure Visibility Wind Dir Wind Speed Gust Speed Precip Events Conditions
12:53 AM 63.0 °F 46.9 °F 56% 29.80 in 10.0 mi NNW 6.9 mph - N/A   Scattered Clouds
1:53 AM 62.1 °F 48.0 °F 60% 29.81 in 10.0 mi WNW 3.5 mph - N/A   Mostly Cloudy
2:53 AM 60.1 °F 48.9 °F 67% 29.80 in 10.0 mi Calm Calm - N/A   Clear
3:53 AM 57.9 °F 50.0 °F 75% 29.82 in 10.0 mi Calm Calm - N/A   Clear
4:53 AM 57.0 °F 50.0 °F 77% 29.84 in 10.0 mi Calm Calm - N/A   Clear
5:53 AM 57.0 °F 50.0 °F 77% 29.88 in 10.0 mi SSW 3.5 mph - N/A   Clear
6:53 AM 57.9 °F 51.1 °F 78% 29.90 in 10.0 mi Calm Calm - N/A   Clear
7:53 AM 61.0 °F 48.0 °F 62% 29.91 in 10.0 mi West 4.6 mph - N/A   Clear
8:53 AM 64.0 °F 42.1 °F 45% 29.92 in 10.0 mi NW 6.9 mph - N/A   Partly Cloudy
9:53 AM 64.9 °F 39.0 °F 39% 29.91 in 10.0 mi WNW 9.2 mph - N/A   Overcast
10:53 AM 66.9 °F 41.0 °F 39% 29.93 in 10.0 mi WNW 9.2 mph - N/A   Partly Cloudy
11:53 AM 68.0 °F 37.9 °F 33% 29.93 in 10.0 mi WNW 16.1 mph 20.7 mph N/A   Clear
12:53 PM 70.0 °F 36.0 °F 29% 29.92 in 10.0 mi WNW 15.0 mph 25.3 mph N/A   Partly Cloudy
1:53 PM 71.1 °F 33.1 °F 25% 29.91 in 10.0 mi NW 16.1 mph 20.7 mph N/A   Clear
2:53 PM 71.1 °F 28.0 °F 20% 29.93 in 10.0 mi NNW 11.5 mph 23.0 mph N/A   Partly Cloudy
3:53 PM 71.1 °F 30.0 °F 22% 29.94 in 10.0 mi NW 16.1 mph 21.9 mph N/A   Clear
4:53 PM 71.1 °F 30.9 °F 23% 29.94 in 10.0 mi West 10.4 mph 19.6 mph N/A   Clear
5:53 PM 70.0 °F 34.0 °F 27% 29.95 in 10.0 mi NW 10.4 mph 20.7 mph N/A   Clear
6:53 PM 68.0 °F 35.1 °F 30% 29.98 in 10.0 mi NNW 12.7 mph 19.6 mph N/A   Clear
7:53 PM 66.9 °F 36.0 °F 32% 30.01 in 10.0 mi NNW 8.1 mph - N/A   Clear
8:53 PM 64.0 °F 37.0 °F 37% 30.03 in 10.0 mi NW 3.5 mph - N/A   Clear
9:53 PM 60.1 °F 39.9 °F 47% 30.05 in 10.0 mi Calm Calm - N/A   Clear
10:53 PM 55.9 °F 41.0 °F 57% 30.07 in 10.0 mi Calm Calm - N/A   Clear
11:53 PM 55.0 °F 43.0 °F 64% 30.08 in 10.0 mi Calm Calm - N/A   Clear